User: anonymous   Login
Location: Unspecified
(0.0000°N, 0.0000°E)
Time: 19:44:42
(UTC+00:00)
Language:

Gurwin Techsat 1B - Orbit

View from above orbital plane
View from above orbital plane
View from above satellite
View from above satellite

Ground track
Ground track

The orbit data is extracted from the following two-line orbital elements,

1 25397U 98043D   19340.75306207 -.00000012 +00000-0 +14013-4 0  9994
2 25397 098.7070 278.9479 0000220 231.1878 128.9280 14.23675584111995
Epoch (UTC): 06 December 2019 18:04:24
Eccentricity: 0.0000220
inclination: 98.7070°
perigee height: 813 km
apogee height: 813 km
right ascension of ascending node: 278.9479°
argument of perigee: 231.1878°
revolutions per day: 14.23675584
mean anomaly at epoch: 128.9280°
orbit number at epoch: 11199

The dashed part of the orbit path shows where the satellite is in the earth's shadow,  

DLR